DAL236 SVMI-TKPK

Flight info

Callsign DAL236
Flight time 1h 7m
Altitude 37000
Route DARPA2 DARPA G432 LRS DCT ETALA DCT MODUX DCT SKB
Aircraft A20N/M-SDE2E3FGHIRWXY/LB1

Departure

Time 2026-04-19 19:50
Airport Maiquetía Simón Bolívar International Airport (SVMI)

Arrival

Time 2026-04-19 20:57
Airport Robert L. Bradshaw International Airport (TKPK)
Time Latitude Longitude Altitude Speed Heading
2026-04-19 19:27 10.60067 -67.00094 311 ft 0 kts 178°
2026-04-19 19:45 10.60055 -67.00090 312 ft 6 kts 153°
2026-04-19 19:46 10.60033 -67.00012 309 ft 17 kts 96°
2026-04-19 19:46 10.60055 -66.99931 306 ft 12 kts 17°
2026-04-19 19:46 10.60101 -66.99915 304 ft 12 kts 37°
2026-04-19 19:46 10.60135 -66.99764 300 ft 27 kts 86°
2026-04-19 19:47 10.60023 -66.99667 302 ft 22 kts 172°
2026-04-19 19:47 10.59916 -66.99652 310 ft 13 kts 127°
2026-04-19 19:47 10.59908 -66.99618 309 ft 0 kts 79°
2026-04-19 19:49 10.59927 -66.99535 306 ft 46 kts 75°
2026-04-19 19:49 10.60071 -66.98946 272 ft 123 kts 76°
2026-04-19 19:49 10.60337 -66.97896 350 ft 171 kts 76°
2026-04-19 19:50 10.60639 -66.96771 1085 ft 167 kts 65°
2026-04-19 19:50 10.61442 -66.95992 1874 ft 164 kts 20°
2026-04-19 19:50 10.62590 -66.96016 2377 ft 183 kts 352°
2026-04-19 19:50 10.63909 -66.96317 2860 ft 203 kts 349°
2026-04-19 19:51 10.65376 -66.96641 3319 ft 227 kts 351°
2026-04-19 19:51 10.66975 -66.96976 3796 ft 244 kts 351°
2026-04-19 19:51 10.68723 -66.97294 4371 ft 262 kts 358°
2026-04-19 19:51 10.70561 -66.97076 5091 ft 271 kts 15°
2026-04-19 19:52 10.72382 -66.96553 6014 ft 275 kts 18°
2026-04-19 19:52 10.74218 -66.96004 6928 ft 279 kts 17°
2026-04-19 19:52 10.76093 -66.95472 7906 ft 282 kts 15°
2026-04-19 19:52 10.77986 -66.94961 8799 ft 285 kts 15°
2026-04-19 19:53 10.79917 -66.94459 9738 ft 288 kts 14°
2026-04-19 19:53 10.81866 -66.93961 10568 ft 295 kts 14°
2026-04-19 19:53 10.83899 -66.93444 11186 ft 307 kts 13°
2026-04-19 19:53 10.85996 -66.92914 12005 ft 312 kts 13°
2026-04-19 19:54 10.88111 -66.92380 12837 ft 315 kts 13°
2026-04-19 19:54 10.90249 -66.91863 13591 ft 318 kts 11°
2026-04-19 19:54 10.92415 -66.91383 14349 ft 321 kts 11°
2026-04-19 19:54 10.94617 -66.90903 15080 ft 326 kts 11°
2026-04-19 19:55 10.96853 -66.90414 15797 ft 330 kts 11°
2026-04-19 19:55 10.99104 -66.89919 16477 ft 334 kts 10°
2026-04-19 19:55 11.01395 -66.89413 17131 ft 338 kts 10°
2026-04-19 19:55 11.03705 -66.88901 17795 ft 341 kts 10°
2026-04-19 19:56 11.06035 -66.88384 18429 ft 345 kts 10°
2026-04-19 19:56 11.08402 -66.87861 19015 ft 349 kts 10°
2026-04-19 19:56 11.10760 -66.87330 19594 ft 353 kts 10°
2026-04-19 19:56 11.13164 -66.86755 20178 ft 357 kts 11°
2026-04-19 19:57 11.15630 -66.86158 20767 ft 361 kts 11°
2026-04-19 19:57 11.18090 -66.85564 21323 ft 365 kts 10°
2026-04-19 19:57 11.20574 -66.84960 21895 ft 369 kts 10°
2026-04-19 19:57 11.23082 -66.84355 22460 ft 372 kts 10°
2026-04-19 19:58 11.25619 -66.83746 22994 ft 376 kts 10°
2026-04-19 19:58 11.28191 -66.83127 23486 ft 382 kts 10°
2026-04-19 19:58 11.30800 -66.82499 23962 ft 388 kts 10°
2026-04-19 19:58 11.33443 -66.81863 24454 ft 393 kts 10°
2026-04-19 19:59 11.36126 -66.81215 24944 ft 398 kts
2026-04-19 19:59 11.38834 -66.80559 25498 ft 401 kts
2026-04-19 19:59 11.41564 -66.79903 26040 ft 403 kts
2026-04-19 19:59 11.44329 -66.79237 26507 ft 408 kts
2026-04-19 20:00 11.47117 -66.78565 26976 ft 412 kts
2026-04-19 20:00 11.49933 -66.77885 27406 ft 417 kts
2026-04-19 20:00 11.52780 -66.77200 27821 ft 422 kts
2026-04-19 20:00 11.55651 -66.76506 28212 ft 427 kts
2026-04-19 20:01 11.58556 -66.75807 28601 ft 431 kts
2026-04-19 20:01 11.61496 -66.75098 29022 ft 435 kts
2026-04-19 20:01 11.64461 -66.74381 29419 ft 439 kts
2026-04-19 20:01 11.67455 -66.73659 29807 ft 443 kts
2026-04-19 20:02 11.70469 -66.72932 30206 ft 446 kts
2026-04-19 20:02 11.73503 -66.72199 30563 ft 450 kts
2026-04-19 20:02 11.76570 -66.71459 30928 ft 453 kts
2026-04-19 20:02 11.79652 -66.70715 31303 ft 456 kts
2026-04-19 20:03 11.82753 -66.69963 31671 ft 459 kts
2026-04-19 20:03 11.85872 -66.69209 32101 ft 459 kts
2026-04-19 20:03 11.88954 -66.68350 32549 ft 462 kts 14°
2026-04-19 20:03 11.91984 -66.67238 33054 ft 464 kts 19°
2026-04-19 20:04 11.94917 -66.65871 33615 ft 464 kts 24°
2026-04-19 20:04 11.97737 -66.64252 34175 ft 464 kts 30°
2026-04-19 20:04 12.00419 -66.62392 34720 ft 464 kts 35°
2026-04-19 20:04 12.02972 -66.60365 35236 ft 463 kts 37°
2026-04-19 20:05 12.05485 -66.58309 35679 ft 463 kts 38°
2026-04-19 20:05 12.07994 -66.56248 36035 ft 464 kts 38°
2026-04-19 20:05 12.10518 -66.54182 36363 ft 466 kts 38°
2026-04-19 20:05 12.13037 -66.52128 36662 ft 468 kts 37°
2026-04-19 20:06 12.15597 -66.50047 36877 ft 471 kts 37°
2026-04-19 20:06 12.20742 -66.45871 36885 ft 471 kts 37°
2026-04-19 20:07 12.25873 -66.41708 36896 ft 471 kts 37°
2026-04-19 20:07 12.31015 -66.37537 36905 ft 480 kts 37°
2026-04-19 20:08 12.36343 -66.33216 36904 ft 494 kts 37°
2026-04-19 20:08 12.41794 -66.28791 36905 ft 506 kts 37°
2026-04-19 20:09 12.47366 -66.24263 36904 ft 515 kts 37°
2026-04-19 20:09 12.53004 -66.19679 36903 ft 519 kts 37°
2026-04-19 20:10 12.58644 -66.15089 36904 ft 520 kts 37°
2026-04-19 20:10 12.64313 -66.10476 36899 ft 521 kts 37°
2026-04-19 20:11 12.69975 -66.05864 36901 ft 520 kts 37°
2026-04-19 20:11 12.75651 -66.01241 36897 ft 521 kts 37°
2026-04-19 20:12 12.81340 -65.96602 36896 ft 520 kts 37°
2026-04-19 20:12 12.87006 -65.91979 36898 ft 520 kts 37°
2026-04-19 20:13 12.92664 -65.87360 36898 ft 521 kts 36°
2026-04-19 20:13 12.98316 -65.82746 36897 ft 521 kts 37°
2026-04-19 20:14 13.03994 -65.78106 36899 ft 522 kts 37°
2026-04-19 20:14 13.09713 -65.73427 36901 ft 523 kts 36°
2026-04-19 20:15 13.15408 -65.68770 36901 ft 524 kts 36°
2026-04-19 20:15 13.21107 -65.64102 36903 ft 524 kts 37°
2026-04-19 20:16 13.26794 -65.59444 36901 ft 524 kts 36°
2026-04-19 20:16 13.32485 -65.54778 36902 ft 524 kts 36°
2026-04-19 20:17 13.38177 -65.50109 36901 ft 524 kts 36°
2026-04-19 20:17 13.43867 -65.45439 36901 ft 524 kts 37°
2026-04-19 20:18 13.49567 -65.40759 36902 ft 524 kts 37°
2026-04-19 20:18 13.55256 -65.36083 36900 ft 525 kts 37°
2026-04-19 20:19 13.60983 -65.31372 36900 ft 525 kts 37°
2026-04-19 20:19 13.66681 -65.26684 36901 ft 525 kts 37°
2026-04-19 20:20 13.72378 -65.21994 36901 ft 526 kts 37°
2026-04-19 20:20 13.78077 -65.17297 36902 ft 526 kts 37°
2026-04-19 20:21 13.83816 -65.12565 36903 ft 526 kts 37°
2026-04-19 20:21 13.89528 -65.07854 36902 ft 528 kts 37°
2026-04-19 20:22 13.95241 -65.03136 36911 ft 527 kts 37°
2026-04-19 20:22 14.00966 -64.98404 36921 ft 528 kts 37°
2026-04-19 20:23 14.06800 -64.93837 36922 ft 526 kts 32°
2026-04-19 20:23 14.12960 -64.89722 36922 ft 526 kts 30°
2026-04-19 20:24 14.19144 -64.85671 36923 ft 526 kts 30°
2026-04-19 20:24 14.25301 -64.81618 36927 ft 526 kts 30°
2026-04-19 20:25 14.31451 -64.77557 36926 ft 526 kts 30°
2026-04-19 20:25 14.37644 -64.73461 36925 ft 526 kts 30°
2026-04-19 20:26 14.43804 -64.69385 36926 ft 526 kts 30°
2026-04-19 20:26 14.49964 -64.65304 36925 ft 526 kts 30°
2026-04-19 20:27 14.56123 -64.61220 36926 ft 527 kts 30°
2026-04-19 20:27 14.62289 -64.57128 36928 ft 527 kts 29°
2026-04-19 20:28 14.68452 -64.53038 36926 ft 527 kts 29°
2026-04-19 20:28 14.74610 -64.48949 36923 ft 527 kts 30°
2026-04-19 20:29 14.80802 -64.44834 36922 ft 527 kts 29°
2026-04-19 20:29 14.86964 -64.40736 36923 ft 527 kts 30°
2026-04-19 20:30 14.96205 -64.34581 36923 ft 527 kts 30°
2026-04-19 20:30 15.02379 -64.30470 36925 ft 528 kts 30°
2026-04-19 20:31 15.08599 -64.26323 36923 ft 529 kts 30°
2026-04-19 20:31 15.14753 -64.22218 36924 ft 529 kts 30°
2026-04-19 20:32 15.20973 -64.18066 36926 ft 529 kts 30°
2026-04-19 20:32 15.27153 -64.13939 36927 ft 530 kts 30°
2026-04-19 20:33 15.33334 -64.09803 36928 ft 529 kts 30°
2026-04-19 20:33 15.39514 -64.05668 36930 ft 530 kts 30°
2026-04-19 20:34 15.45702 -64.01526 36932 ft 530 kts 30°
2026-04-19 20:34 15.51918 -63.97361 36934 ft 530 kts 30°
2026-04-19 20:35 15.58111 -63.93207 36935 ft 530 kts 30°
2026-04-19 20:35 15.64295 -63.89057 36937 ft 531 kts 30°
2026-04-19 20:36 15.70511 -63.84883 36937 ft 531 kts 30°
2026-04-19 20:36 15.76743 -63.80696 36936 ft 531 kts 30°
2026-04-19 20:37 15.82933 -63.76535 36938 ft 532 kts 30°
2026-04-19 20:37 15.89134 -63.72359 36933 ft 532 kts 30°
2026-04-19 20:38 15.95346 -63.68176 36930 ft 532 kts 30°
2026-04-19 20:38 16.01601 -63.63956 36940 ft 533 kts 30°
2026-04-19 20:39 16.07800 -63.59778 36943 ft 532 kts 30°
2026-04-19 20:39 16.14039 -63.55568 36939 ft 534 kts 30°
2026-04-19 20:40 16.20281 -63.51347 36933 ft 534 kts 30°
2026-04-19 20:40 16.26523 -63.47126 36902 ft 528 kts 30°
2026-04-19 20:41 16.29522 -63.45094 36633 ft 512 kts 29°
2026-04-19 20:41 16.32496 -63.43169 36087 ft 494 kts 26°
2026-04-19 20:41 16.35442 -63.41389 35277 ft 482 kts 25°
2026-04-19 20:41 16.38341 -63.39671 34332 ft 476 kts 25°
2026-04-19 20:42 16.41210 -63.37969 33155 ft 474 kts 25°
2026-04-19 20:42 16.44034 -63.36287 31943 ft 476 kts 25°
2026-04-19 20:42 16.46907 -63.34563 30842 ft 471 kts 25°
2026-04-19 20:42 16.49695 -63.32878 30117 ft 455 kts 26°
2026-04-19 20:43 16.52407 -63.31234 29413 ft 440 kts 25°
2026-04-19 20:43 16.55002 -63.29660 28651 ft 427 kts 25°
2026-04-19 20:43 16.57535 -63.28124 27827 ft 417 kts 26°
2026-04-19 20:43 16.60032 -63.26614 26916 ft 410 kts 26°
2026-04-19 20:44 16.62454 -63.25149 25998 ft 403 kts 26°
2026-04-19 20:44 16.64858 -63.23694 25104 ft 396 kts 26°
2026-04-19 20:44 16.67209 -63.22267 24228 ft 388 kts 26°
2026-04-19 20:44 16.69532 -63.20858 23345 ft 381 kts 26°
2026-04-19 20:45 16.71776 -63.19498 22488 ft 375 kts 26°
2026-04-19 20:45 16.74013 -63.18138 21632 ft 368 kts 27°
2026-04-19 20:45 16.76215 -63.16802 20779 ft 362 kts 27°
2026-04-19 20:45 16.78374 -63.15490 19922 ft 356 kts 27°
2026-04-19 20:46 16.80495 -63.14200 19081 ft 350 kts 27°
2026-04-19 20:46 16.82580 -63.12933 18246 ft 345 kts 27°
2026-04-19 20:46 16.84613 -63.11700 17454 ft 338 kts 27°
2026-04-19 20:46 16.86619 -63.10485 16818 ft 327 kts 28°
2026-04-19 20:47 16.88569 -63.09301 16090 ft 321 kts 28°
2026-04-19 20:47 16.90460 -63.08155 15335 ft 316 kts 28°
2026-04-19 20:47 16.92349 -63.07008 14573 ft 311 kts 28°
2026-04-19 20:47 16.94197 -63.05887 13810 ft 307 kts 28°
2026-04-19 20:48 16.96035 -63.04769 13046 ft 303 kts 29°
2026-04-19 20:48 16.97829 -63.03678 12290 ft 299 kts 30°
2026-04-19 20:48 16.99628 -63.02582 11536 ft 295 kts 30°
2026-04-19 20:48 17.01369 -63.01522 10812 ft 290 kts 30°
2026-04-19 20:49 17.03103 -63.00466 10066 ft 286 kts 30°
2026-04-19 20:49 17.04798 -62.99433 9335 ft 282 kts 31°
2026-04-19 20:49 17.06489 -62.98403 8605 ft 278 kts 31°
2026-04-19 20:49 17.08130 -62.97403 7868 ft 275 kts 31°
2026-04-19 20:50 17.09782 -62.96396 7121 ft 271 kts 32°
2026-04-19 20:50 17.11387 -62.95417 6414 ft 267 kts 33°
2026-04-19 20:50 17.12961 -62.94458 5988 ft 252 kts 33°
2026-04-19 20:50 17.14437 -62.93558 5558 ft 241 kts 33°
2026-04-19 20:51 17.15838 -62.92703 5107 ft 227 kts 33°
2026-04-19 20:51 17.17179 -62.91885 4335 ft 222 kts 34°
2026-04-19 20:51 17.18481 -62.91079 3635 ft 215 kts 38°
2026-04-19 20:51 17.19573 -62.90060 2921 ft 208 kts 53°
2026-04-19 20:52 17.20400 -62.88839 2325 ft 203 kts 58°
2026-04-19 20:52 17.21133 -62.87674 2074 ft 182 kts 59°
2026-04-19 20:52 17.21802 -62.86610 1962 ft 173 kts 59°
2026-04-19 20:52 17.22454 -62.85571 1976 ft 160 kts 59°
2026-04-19 20:53 17.23022 -62.84672 1943 ft 135 kts 59°
2026-04-19 20:53 17.23516 -62.83890 1936 ft 127 kts 59°
2026-04-19 20:53 17.24003 -62.83116 1953 ft 124 kts 59°
2026-04-19 20:53 17.24470 -62.82375 1947 ft 121 kts 59°
2026-04-19 20:54 17.24933 -62.81642 1951 ft 121 kts 60°
2026-04-19 20:54 17.25398 -62.80908 1954 ft 121 kts 60°
2026-04-19 20:54 17.25865 -62.80167 1953 ft 121 kts 60°
2026-04-19 20:54 17.26332 -62.79429 1868 ft 121 kts 60°
2026-04-19 20:55 17.26794 -62.78700 1670 ft 120 kts 59°
2026-04-19 20:55 17.27260 -62.77965 1487 ft 120 kts 59°
2026-04-19 20:55 17.27717 -62.77243 1306 ft 119 kts 60°
2026-04-19 20:55 17.28176 -62.76518 1119 ft 119 kts 59°
2026-04-19 20:56 17.28632 -62.75796 947 ft 119 kts 60°
2026-04-19 20:56 17.29086 -62.75072 773 ft 118 kts 60°
2026-04-19 20:56 17.29544 -62.74358 584 ft 118 kts 60°
2026-04-19 20:56 17.30003 -62.73633 411 ft 118 kts 59°
2026-04-19 20:57 17.30454 -62.72925 222 ft 117 kts 60°
2026-04-19 20:57 17.30872 -62.72253 172 ft 94 kts 58°
2026-04-19 20:57 17.31143 -62.71833 171 ft 44 kts 56°
2026-04-19 20:57 17.31311 -62.71581 163 ft 39 kts 58°
2026-04-19 20:58 17.31408 -62.71387 158 ft 16 kts 111°
2026-04-19 20:58 17.31349 -62.71389 155 ft 10 kts 211°
2026-04-19 20:58 17.31278 -62.71433 153 ft 13 kts 210°
2026-04-19 20:58 17.31210 -62.71424 149 ft 9 kts 148°
2026-04-19 20:59 17.31193 -62.71412 147 ft 0 kts 148°